Location: Roland
(31.1349°N, 85.4372°W)
Time: 04:10:23
(UTC+00:00)

Courier 1B - Pass Details

Date: 24 April 2021
Orbit: 962 x 1209 km, 28.3° (Epoch: 07 May)

Event Time Altitude Azimuth Distance (km) Brightness Sun altitude
Rises 13:23:16 0° 201° (SSW) 3,992 10.5 28.7°
Reaches altitude 10° 13:28:02 10° 175° (S) 2,977 10.2 29.7°
Maximum altitude 13:31:03 13° 150° (SSE) 2,728 10.4 30.4°
Drops below altitude 10° 13:34:00 10° 125° (SE) 2,902 11.0 31.0°
Sets 13:38:29 0° 99° (E) 3,799 11.7 32.0°
